Regional Weather Roundup
Issued by NWS Raleigh/Durham, NC

Home | Current Version | Previous Version | Text Only | Print | Product List | Glossary On
Versions: 1 2 3 4 5 6 7 8 9 10 11 12 13 14 15 16 17 18 19 20 21 22 23 24 25 26 27 28 29 30 31 32 33 34 35 36 37 38 39 40 41 42 43 44 45 46 47 48 49 50
000
ASUS42 KRAH 141110
RWRRAH
NORTH CAROLINA WEATHER ROUNDUP
NATIONAL WEATHER SERVICE RALEIGH NC
700 AM EDT MON OCT 14 2019

NOTE: "FAIR" INDICATES FEW OR NO CLOUDS BELOW 12,000 FEET WITH NO
SIGNIFICANT WEATHER AND/OR OBSTRUCTIONS TO VISIBILITY.

NCZ001-053-055-056-065-067-141200-
WESTERN NORTH CAROLINA

CITY           SKY/WX    TMP DP  RH WIND       PRES   REMARKS
ASHEVILLE      FAIR      50  43  77 N6        30.11R
JEFFERSON      FAIR      47  40  77 CALM      30.09R
MORGANTON      FOG       44  43  97 CALM      30.09R VSB<1/4
HICKORY        FOG       53  52  96 CALM      30.06R VSB 1/4
WILKESBORO     NOT AVBL
RUTHERFORDTON  FAIR      50  50 100 NW3       30.08R
MOUNT AIRY     FAIR      46  45  93 CALM      30.07R
BOONE          FAIR      48  44  84 NW12G17   30.10R
$$

NCZ021-022-025-041-071-084-088-141200-
CENTRAL NORTH CAROLINA

CITY           SKY/WX    TMP DP  RH WIND       PRES   REMARKS
CHARLOTTE      CLOUDY    62  59  90 N5        30.05R FOG
GREENSBORO     FOG       54  54 100 NW5       30.04R VSB 1/4
WINSTON-SALEM  FOG       54  54 100 CALM      30.05R VSB 1/4
RALEIGH-DURHAM MOCLDY    62  61  96 NW3       30.03R
FORT BRAGG     FAIR      64  64 100 CALM      30.02S
FAYETTEVILLE   FOG       65  64  97 S3        30.03R VSB 1/4
BURLINGTON     FOG       56  54  93 CALM      30.03R VSB 3/4
ROXBORO        MOCLDY    54  52  94 CALM      30.06R FOG
HENDERSON      CLOUDY    55  54  94 CALM      30.04R
LOUISBURG      FAIR      61  61 100 NW5       30.05R
LAURINBURG     FAIR      63  62  97 SW3       30.04R FOG
$$

NCZ011-015-027-028-043-044-047-080-103-141200-
NORTHEASTERN NORTH CAROLINA

CITY           SKY/WX    TMP DP  RH WIND       PRES   REMARKS
ROCKY MT-WILSO CLOUDY    65  65 100 S3        30.02R
GREENVILLE     CLOUDY    64  64 100 SW3       30.04S
WASHINGTON     FAIR      65  64  96 CALM      30.04R
ELIZABETH CITY LGT RAIN  69  66  90 SW6       30.02R
MANTEO         NOT AVBL
CAPE HATTERAS  LGT RAIN  68  66  93 S17G24    30.05R
$$

NCZ078-087-090-091-093-098-101-141200-
SOUTHEASTERN NORTH CAROLINA

CITY           SKY/WX    TMP DP  RH WIND       PRES   REMARKS
GOLDSBORO      CLOUDY    64  64 100 CALM      30.02R
KINSTON        CLEAR     64  63  94 SW3       30.03S
KENANSVILLE    FOG       64 N/A N/A CALM      30.05R VSB 1/2
NEW BERN       FAIR      65  65 100 CALM      30.05R
CHERRY POINT   NOT AVBL
BEAUFORT       CLOUDY   N/A N/A N/A S6        30.04R
JACKSONVILLE   FAIR      65  64  97 CALM      30.03R
WILMINGTON     CLOUDY    70  67  90 W6        30.03R
$$




USA.gov is the U.S. government's official web portal to all federal, state and local government web resources and services.